Muenster, Germany

6:04 AM CEST on May 29, 2017 (GMT +0200)
Munster-Osnabruck

Weather History for EDDG - October, 2013

Change the Weather History Date:

Sunday, October 13, 2013

  Actual Average Record
Temperature  
Mean Temperature 47 °F -  
Max Temperature 52 °F 52 °F 73 °F (2001)
Min Temperature 42 °F 40 °F 33 °F (2003)
Degree Days  
Heating Degree Days 18    
Moisture  
Dew Point 42 °F    
Average Humidity 82    
Maximum Humidity 100    
Minimum Humidity 58    
Precipitation  
Precipitation 0.00 in - - ()
Sea Level Pressure  
Sea Level Pressure 30.01 in    
Wind  
Wind Speed 6 mph ()    
Max Wind Speed 13 mph    
Max Gust Speed -    
Visibility 6.3 miles    
Events Rain    
Averages and records for this station are not official NWS values.
T = Trace of Precipitation, MM = Missing Value Source: Averaged Metar Reports

Daily Weather History Graph

Daily Weather History Graph

Search for Another Location

Airport or City:

Trip Planner

Search our weather history database for the weather conditions in past years. The results will help you decide how hot, cold, wet, or windy it might be!

Date:

Astronomy

Oct. 13, 2013 Rise Set
Actual Time 7:50 AM CEST 6:39 PM CEST
Civil Twilight 7:16 AM CEST 7:13 PM CEST
Nautical Twilight 6:37 AM CEST 7:52 PM CEST
Astronomical Twilight 5:57 AM CEST 8:31 PM CEST
Moon 3:56 PM CEST (10/13) 1:00 AM CEST (10/13)
Length of Visible Light 11h 56m
Length of Day
10h 48m
Waxing Gibbous, 66% of the Moon is Illuminated
Oct 13
Waxing Gibbous
Oct 19
Full
Oct 27
Last Quarter
Nov 3
New
Nov 10
First Quarter

Hourly Weather History & Observations

Time (CEST) Temp. Windchill Dew Point Humidity Pressure Visibility Wind Dir Wind Speed Gust Speed Precip Events Conditions
12:00 AM 45 °F - 44 °F 97% 29.99 in 3 mi SSE 4.5 mph - -   Mist
12:20 AM 44.6 °F - 44.6 °F 100% 29.98 in 2.8 mi Variable 2.3 mph - N/A   Mostly Cloudy
12:50 AM 44.6 °F - 44.6 °F 100% 29.98 in 2.8 mi SE 2.3 mph - N/A   Mostly Cloudy
1:00 AM 45 °F - 44 °F 96% 29.99 in 3 mi SSE 6.7 mph - -   Mist
1:20 AM 44.6 °F 43.1 °F 44.6 °F 100% 29.98 in 2.8 mi South 3.5 mph - N/A   Mostly Cloudy
1:50 AM 44.6 °F - 44.6 °F 100% 29.98 in 2.8 mi South 2.3 mph - N/A   Mostly Cloudy
2:00 AM 45 °F - 44 °F 95% 29.99 in 3 mi South 4.5 mph - -   Mist
2:20 AM 44.6 °F 43.1 °F 44.6 °F 100% 29.98 in 2.8 mi South 3.5 mph - N/A   Mostly Cloudy
2:50 AM 44.6 °F - 44.6 °F 100% 29.98 in 2.8 mi South 2.3 mph - N/A   Mostly Cloudy
3:00 AM 45 °F - 44 °F 96% 29.99 in 3 mi SSE 4.5 mph - -   Mist
3:20 AM 44.6 °F 43.1 °F 44.6 °F 100% 29.98 in 2.8 mi SE 3.5 mph - N/A   Mostly Cloudy
3:50 AM 44.6 °F 42.2 °F 42.8 °F 93% 29.98 in 2.8 mi SE 4.6 mph - N/A   Mostly Cloudy
4:00 AM 45 °F - 43 °F 91% 30.00 in 3 mi SE 6.7 mph - -   Mist
4:20 AM 44.6 °F 41.4 °F 42.8 °F 93% 29.98 in 4.3 mi ESE 5.8 mph - N/A   Mostly Cloudy
4:50 AM 42.8 °F 40.1 °F 42.8 °F 100% 29.98 in 5.0 mi SE 4.6 mph - N/A   Mostly Cloudy
5:00 AM 43 °F - 42 °F 92% 29.99 in 5 mi SE 8.9 mph - -   Overcast
5:20 AM 42.8 °F 40.1 °F 41.0 °F 93% 29.98 in 5.0 mi SSE 4.6 mph - N/A   Unknown
5:50 AM 42.8 °F 41.1 °F 41.0 °F 93% 29.98 in - SE 3.5 mph - N/A   Clear
6:20 AM 42.8 °F - 41.0 °F 93% 29.98 in - SE 2.3 mph - N/A   Clear
6:50 AM 42.8 °F 41.1 °F 41.0 °F 93% 29.98 in - ESE 3.5 mph - N/A   Clear
7:00 AM 43 °F - 41 °F 89% 29.99 in 7 mi SE 6.7 mph - -   Scattered Clouds
7:20 AM 42.8 °F 41.1 °F 41.0 °F 93% 29.98 in - ESE 3.5 mph - N/A   Clear
7:50 AM 42.8 °F 41.1 °F 41.0 °F 93% 29.98 in 5.6 mi SE 3.5 mph - N/A   Unknown
8:00 AM 42 °F - 41 °F 93% 30.00 in 6 mi SSE 6.7 mph - -   Partly Cloudy
8:20 AM 42.8 °F 38.0 °F 41.0 °F 93% 30.01 in 5.6 mi SSE 8.1 mph - N/A   Unknown
8:50 AM 44.6 °F 39.7 °F 41.0 °F 87% 30.01 in 5.6 mi SSE 9.2 mph - N/A   Unknown
9:00 AM 44 °F - 42 °F 89% 30.02 in 6 mi SSE 8.9 mph - -   Scattered Clouds
9:20 AM 44.6 °F 40.2 °F 41.0 °F 87% 30.01 in 5.6 mi SE 8.1 mph - N/A   Mostly Cloudy
9:50 AM 46.4 °F 42.9 °F 42.8 °F 87% 30.01 in 5.6 mi SE 6.9 mph - N/A   Scattered Clouds
10:00 AM 46 °F - 42 °F 83% 30.03 in 6 mi SE 6.7 mph - -   Scattered Clouds
10:20 AM 48.2 °F - 42.8 °F 82% 30.01 in 6.2 mi SSE 9.2 mph - N/A   Scattered Clouds
10:50 AM 48.2 °F - 44.6 °F 87% 30.01 in 6.2 mi SSE 11.5 mph - N/A   Scattered Clouds
11:00 AM 49 °F - 43 °F 74% 30.04 in 6 mi SSE 11.2 mph - -   Scattered Clouds
11:20 AM 50.0 °F - 42.8 °F 76% 30.01 in 6.2 mi SSE 11.5 mph - N/A   Scattered Clouds
11:50 AM 51.8 °F - 44.6 °F 76% 30.01 in 6.2 mi SSE 10.4 mph - N/A   Mostly Cloudy
12:00 PM 51 °F - 44 °F 70% 30.04 in 7 mi SSE 11.2 mph - -   Partly Cloudy
12:20 PM 50.0 °F - 42.8 °F 76% 30.01 in 6.2 mi SSE 10.4 mph - N/A   Mostly Cloudy
12:50 PM 50.0 °F - 42.8 °F 76% 30.04 in 6.2 mi SSE 9.2 mph - N/A   Mostly Cloudy
1:00 PM 51 °F - 43 °F 66% 30.04 in 12 mi SSE 8.9 mph - -   Mostly Cloudy
1:20 PM 50.0 °F - 42.8 °F 76% 30.04 in 6.2 mi SSE 10.4 mph - N/A   Mostly Cloudy
1:50 PM 51.8 °F - 42.8 °F 71% 30.01 in 6.2 mi SSE 12.7 mph - N/A   Scattered Clouds
2:00 PM 52 °F - 42 °F 61% 30.04 in 12 mi SSE 11.2 mph - -   Partly Cloudy
2:20 PM 51.8 °F - 42.8 °F 71% 30.01 in 6.2 mi SSE 10.4 mph - N/A   Scattered Clouds
2:50 PM 51.8 °F - 42.8 °F 71% 30.01 in 6.2 mi SSE 10.4 mph - N/A   Scattered Clouds
3:00 PM 52 °F - 43 °F 63% 30.03 in 12 mi SSE 11.2 mph - -   Partly Cloudy
3:20 PM 51.8 °F - 41.0 °F 67% 30.01 in 6.2 mi SSE 12.7 mph - N/A   Scattered Clouds
3:50 PM 51.8 °F - 41.0 °F 67% 30.01 in 6.2 mi SSE 11.5 mph - N/A   Mostly Cloudy
4:00 PM 52 °F - 42 °F 58% 30.04 in 12 mi SSE 11.2 mph - -   Mostly Cloudy
4:20 PM 51.8 °F - 42.8 °F 71% 30.01 in 6.2 mi SSE 11.5 mph - N/A   Scattered Clouds
4:50 PM 51.8 °F - 41.0 °F 67% 30.01 in 6.2 mi ESE 8.1 mph - N/A   Mostly Cloudy
5:00 PM 51 °F - 41 °F 60% 30.03 in 12 mi SE 8.9 mph - -   Scattered Clouds
5:20 PM 50.0 °F - 41.0 °F 71% 30.01 in 6.2 mi SE 6.9 mph - N/A   Mostly Cloudy
5:50 PM 50.0 °F - 41.0 °F 71% 30.01 in 6.2 mi ESE 5.8 mph - N/A   Mostly Cloudy
6:00 PM 50 °F - 41 °F 63% 30.03 in 9 mi ESE 4.5 mph - -   Scattered Clouds
6:20 PM 50.0 °F - 41.0 °F 71% 30.01 in 6.2 mi ESE 5.8 mph - N/A   Mostly Cloudy
6:50 PM 48.2 °F - 41.0 °F 76% 30.01 in 6.2 mi ESE 5.8 mph - N/A   Mostly Cloudy
7:00 PM 49 °F - 40 °F 63% 30.04 in 12 mi SE 6.7 mph - -   Scattered Clouds
7:20 PM 48.2 °F - 41.0 °F 76% 30.01 in 6.2 mi ESE 5.8 mph - N/A   Mostly Cloudy
7:50 PM 48.2 °F - 41.0 °F 76% 30.04 in 6.2 mi ESE 6.9 mph - N/A   Mostly Cloudy
8:00 PM 47 °F - 41 °F 73% 30.05 in 12 mi ESE 6.7 mph - -   Overcast
8:20 PM 46.4 °F 42.9 °F 41.0 °F 81% 30.04 in 6.2 mi ESE 6.9 mph - N/A   Mostly Cloudy
8:50 PM 46.4 °F 43.5 °F 41.0 °F 81% 30.04 in 6.2 mi ESE 5.8 mph - N/A   Mostly Cloudy
9:00 PM 47 °F - 41 °F 72% 30.05 in 12 mi ESE 6.7 mph - -   Overcast
9:20 PM 46.4 °F 42.9 °F 41.0 °F 81% 30.04 in 6.2 mi ESE 6.9 mph - N/A   Mostly Cloudy
9:50 PM 46.4 °F 44.3 °F 41.0 °F 81% 30.04 in 6.2 mi ESE 4.6 mph - N/A   Mostly Cloudy
10:00 PM 47 °F - 41 °F 71% 30.05 in 12 mi ESE 6.7 mph - -   Scattered Clouds
10:20 PM 46.4 °F 44.3 °F 41.0 °F 81% 30.04 in 6.2 mi ESE 4.6 mph - N/A Rain Light Rain
10:50 PM 46.4 °F 43.5 °F 41.0 °F 81% 30.01 in 6.2 mi East 5.8 mph - N/A   Mostly Cloudy
11:00 PM 47 °F - 41 °F 73% 30.04 in 12 mi ESE 4.5 mph - - Rain Light Rain
11:20 PM 46.4 °F 44.3 °F 41.0 °F 81% 30.01 in 6.2 mi ESE 4.6 mph - N/A   Mostly Cloudy
11:50 PM 46.4 °F 44.3 °F 41.0 °F 81% 30.01 in 6.2 mi ESE 4.6 mph - N/A   Mostly Cloudy